Regional Weather Roundup
Issued by NWS

Home | Current Version | Previous Version | Text Only | Print | Product List | Glossary Off
Versions: 1 2 3 4 5 6 7 8 9 10 11 12 13 14 15 16 17 18 19 20 21 22 23 24 25 26 27 28 29 30 31 32 33 34 35 36 37 38 39 40 41 42 43 44 45 46 47 48 49 50

000
ASUS43 KMPX 231310
RWRMN
WEATHER ROUNDUP FOR MINNESOTA
NATIONAL WEATHER SERVICE TWIN CITIES/CHANHASSEN MN
800 AM CDT WED JUL 23 2014


NOTE: "FAIR" INDICATES FEW OR NO CLOUDS BELOW 12,000 FEET WITH NO
SIGNIFICANT WEATHER AND/OR OBSTRUCTIONS TO VISIBILITY. N/A MEANS
CURRENT SKY AND/OR WEATHER CONDITIONS ARE NOT AVAILABLE.

MNZ060>063-068>070-231400-
   Twin Cities Metro

CITY           SKY/WX    TMP DP  RH WIND       PRES   REMARKS
TWIN CITIES    MOSUNNY   69  56  62 N7        30.25S
ST PAUL          N/A     67  58  72 VRB5      30.26R
CRYSTAL        SUNNY     68  56  65 VRB5      30.25S
BLAINE         MOSUNNY   66  59  77 N6        30.26R
LAKEVILLE      SUNNY     64  57  77 N6        30.26R
EDEN PRAIRIE   SUNNY     68  57  68 N6        30.25R
SOUTH ST PAUL  SUNNY     67  57  69 N6        30.26R
LAKE ELMO      FAIR      64  59  82 CALM      30.26S
$$
MNZ001>005-007-008-013>017-022>024-027-028-231400-
   Northwest Minnesota

CITY           SKY/WX    TMP DP  RH WIND       PRES   REMARKS
BEMIDJI        CLOUDY    59  56  92 NW3       30.29S
HALLOCK        PTSUNNY   61  55  82 N7        30.31R
ROSEAU         MOSUNNY   57  52  82 CALM      30.30R
WARROAD        MOSUNNY   59  55  88 NW3       30.30R
THIEF RVR FALL PTSUNNY   59  55  88 N6        30.30S
CROOKSTON      CLOUDY    61  55  82 CALM      30.31R
FOSSTON        CLOUDY    57  54  88 CALM      30.30S
DETROIT LAKES  PTSUNNY   63  57  82 CALM      30.31S
MOORHEAD       MOSUNNY   63  63 100 CALM      30.30S
PARK RAPIDS    MOSUNNY   57  56  96 CALM      30.30R
$$
MNZ006-009>011-018-025>026-231400-
   North Central Minnesota

CITY           SKY/WX    TMP DP  RH WIND       PRES   REMARKS
BAUDETTE       MOSUNNY   62  56  80 CALM      30.30R
FLAG ISLAND    CLOUDY    63  54  72 NE6       30.29R
INTL FALLS     SUNNY     63  53  70 NE6       30.28R
WASKISH        MOSUNNY   59  57  94 CALM      30.29R
BIG FORK       MOSUNNY   59  55  88 SW1       30.29R
LONGVILLE      PTSUNNY   61  59  94 CALM      30.29S
GRAND RAPIDS   CLOUDY    61  54  77 CALM      30.29R
CRANE LAKE     SUNNY     57  54  88 CALM      30.29R
ORR            MOSUNNY   61  54  77 CALM      30.26R
COOK           SUNNY     59  55  88 CALM      30.28R
$$
MNZ012-019>021-037-231400-
   Northeast Minnesota

CITY           SKY/WX    TMP DP  RH WIND       PRES   REMARKS
DULUTH         MOSUNNY   64  56  75 N6        30.26R
ELY            MOSUNNY   59  55  88 CALM      30.26S
HIBBING        MOSUNNY   64  56  75 N5        30.28R
DULUTH HARBOR  MOSUNNY   64  55  72 CALM      30.25R
TWO HARBORS    SUNNY     64  55  72 N5        30.23R
SILVER BAY     SUNNY     63  59  88 N3        30.23S
GRAND MARAIS     N/A     55  51  86 CALM      30.23R
G MARAIS ARPRT MOSUNNY   57  52  82 N3        30.26S
$$
MNZ029>031-032-039>041-046>048-054>057-064-231400-
   West Central Minnesota

CITY           SKY/WX    TMP DP  RH WIND       PRES   REMARKS
FERGUS FALLS   SUNNY     64  55  72 E3        30.29S
WHEATON        MOSUNNY   61  55  82 E3        30.30F
MORRIS         SUNNY     63  61  94 CALM      30.28F
ALEXANDRIA     SUNNY     66  56  70 NE6       30.31R
ELBOW LAKE     FAIR      65  59  81 E5        30.29F
WADENA         MOSUNNY   61  57  88 CALM      30.30S
GLENWOOD       SUNNY     63  57  82 N3        30.30F
APPLETON       MOSUNNY   66  59  77 CALM      30.28F
BENSON         SUNNY     63  59  88 CALM      30.29S
ORTONVILLE     MOSUNNY   66  57  72 NE3       30.29F
MADISON        MOSUNNY   64  61  88 CALM      30.29S
WILLMAR        FAIR      66  55  68 NE8       30.31S
$$
MNZ033>034-036-042>043-049>051-058-059-231400-
   Central Minnesota

CITY           SKY/WX    TMP DP  RH WIND       PRES   REMARKS
ST CLOUD       SUNNY     66  57  72 N8        30.28R
SAUK CENTRE    FAIR      62  56  81 N3        30.31R
PAYNESVILLE    SUNNY     60  55  82 NW5       30.30R
AITKIN         MOSUNNY   61  55  82 CALM      30.27S
PINE RIVER     MOSUNNY   61  57  88 NW3       30.32R
BRAINERD       MOSUNNY   63  58  83 NW3       30.29S
STAPLES        SUNNY     59  55  88 CALM      30.30S
LONG PRAIRIE   FAIR      61  55  82 N3        30.30S
LITTLE FALLS   SUNNY     59  55  88 CALM      30.28F
LITCHFIELD       N/A     64  59  82 N3        30.29R
BUFFALO        SUNNY     66  56  68 N7        30.28R
MAPLE LAKE     SUNNY     66  59  79 N3        30.28R
$$
MNZ037-044-045-052-053-231400-
   East Central Minnesota

CITY           SKY/WX    TMP DP  RH WIND       PRES   REMARKS
PRINCETON      SUNNY     66  59  77 NW7       30.27S
MORA           MOSUNNY   63  55  77 N3        30.28R
CAMBRIDGE      SUNNY     66  55  68 NW5       30.25R
RUSH CITY      SUNNY     62  57  82 CALM      30.26S
MOOSE LAKE     MOSUNNY   61  54  77 N5        30.25R
HINCKLEY       FAIR      63  55  77 N5        30.26R
CLOQUET        MOSUNNY   61  55  82 N3        30.27R
MCGREGOR       MOSUNNY   59  55  88 NW3       30.29R
$$
MNZ071>073-080-081-089-090-097-098-231400-
   Southwest Minnesota

CITY           SKY/WX    TMP DP  RH WIND       PRES   REMARKS
MONTEVIDEO     SUNNY     66  59  77 E3        30.30R
GRANITE FALLS  SUNNY     63  58  84 N3        30.31S
CANBY          SUNNY     62  58  89 NW3       30.31S
MARSHALL       SUNNY     61  55  82 NW3       30.29S
REDWOOD FALLS  SUNNY     65  56  72 NE3       30.27R
OLIVIA         SUNNY     63  55  77 N5        30.27F
PIPESTONE      MOSUNNY   63  55  77 NE5       30.30S
WINDOM         SUNNY     63  55  77 N7        30.29S
WORTHINGTON    SUNNY     63  55  77 N7        30.30R
JACKSON        SUNNY     63  55  77 VRB3      30.28S
TRACY          SUNNY     64  58  82 N5        30.30R
SLAYTON        SUNNY     62  57  83 CALM      30.31S
$$
MNZ065>067-074>077-082>085-091>093-231400-
   South Central Minnesota

CITY           SKY/WX    TMP DP  RH WIND       PRES   REMARKS
MANKATO        SUNNY     64  55  72 NE7       30.26S
NEW ULM        SUNNY     64  57  77 N8        30.27R
ST JAMES       SUNNY     64  57  77 N3        30.28R
FAIRMONT       SUNNY     63  54  72 N7        30.27R
GLENCOE        SUNNY     65  56  71 CALM      30.27S
FARIBAULT      MOSUNNY   68  57  68 NW3       30.26S
OWATONNA       MOSUNNY   63  59  88 CALM      30.26R
WASECA         MOSUNNY   61  55  82 N6        30.27R
ALBERT LEA     SUNNY     64  61  88 NW3       30.26R
$$
MNZ078>079-086>088-094>096-231400-
   Southeast Minnesota

CITY           SKY/WX    TMP DP  RH WIND       PRES   REMARKS
ROCHESTER      SUNNY     66  60  81 N5        30.26R
RED WING       SUNNY     66  61  82 CALM      30.23S
STANTON        SUNNY     63  59  86 CALM      30.25R
DODGE CENTER   MOSUNNY   64  61  88 N5        30.25S
WINONA         SUNNY     70  64  83 N5        30.23R
AUSTIN         MOSUNNY   64  59  82 N3        30.24S
PRESTON        SUNNY     64  63  99 N5        30.25R
$$
ABBREVIATIONS USED IN REMARKS
   TC - TEMPERATURES IN CELSIUS
  WCI - WIND CHILL INDEX
   HX - HEAT INDEX
  VSB - VISIBILITY
$$



USA.gov is the U.S. government's official web portal to all federal, state and local government web resources and services.